{"data":{"norad_id":62782,"epoch":"2026-05-25T04:40:19.327296Z","epoch_age_seconds":48403,"freshness":"FRESH","line1":"1 62782U 25015AA  26145.19466814  .00018110  00000+0  59342-3 0  9991","line2":"2 62782  53.1607 326.4422 0001197  95.6123 264.5015 15.31727325 75928","mean_motion":15.31727325,"eccentricity":0.0001197,"inclination_deg":53.1607,"raan_deg":326.4422,"arg_perigee_deg":95.6123,"mean_anomaly_deg":264.5015,"bstar":0.00059342,"rev_number":7592,"period_min":94.011510828143,"perigee_km":469.83874120706,"apogee_km":471.47834285982,"semimajor_km":6848.7955420334,"source":"CELESTRAK","updated_at":"2026-05-25T13:38:19.748600Z"}}